CAPE
15 6 0 0 0 0 0 0 0 0 0 0 0 0 0 0 0 0 0 0 0 0 0 0 0 0 0 0 0 0 0 0 0 0 0 0 14 0 8 37 66 78 79 66
0 0 0 0 0 0 2 0 0 0 2 0 0 0 0 0 0 0 0 0 0 0 0 0 0 0 0 0 0 0 0 0 0 0 17 45 77 68 75 37 18 37 65 99
0 0 0 1 0 0 0 0 0 0 0 0 0 0 0 0 0 0 0 0 0 0 0 0 0 0 0 0 0 0 0 0 0 0 33 55 65 96 170 136 121 75 25 43
2 0 0 1 7 0 0 0 1 1 2 0 0 0 0 0 0 0 0 0 0 0 0 0 0 0 0 0 0 0 0 0 0 0 0 7 29 57 28 85 110 166 220 157
0 0 0 5 3 3 6 3 7 13 0 0 0 0 0 0 0 0 0 0 0 0 0 0 0 0 0 0 0 0 0 0 0 0 0 0 0 0 0 0 0 0 0 0
0 0 0 0 2 16 5 12 4 2 1 0 0 0 0 0 0 0 0 0 0 0 0 0 0 0 0 0 0 0 0 0 0 0 0 0 0 0 0 0 0 0 0 0
3 0 0 2 0 1 17 12 1 0 0 0 0 0 0 0 0 0 0 0 0 0 0 0 0 0 0 0 0 0 0 0 0 0 0 0 0 0 0 0 0 0 0 0
0 0 0 0 0 0 0 0 0 0 0 0 0 0 0 0 0 0 0 0 0 0 0 0 0 0 0 0 0 0 0 0 0 0 0 0 0 0 0 0 0 0 0 0
0 0 0 0 0 0 3 6 0 0 0 0 0 0 0 0 0 0 0 0 0 0 0 0 0 0 0 0 0 0 0 0 0 0 0 0 0 0 0 0 0 0 0 0
0 0 0 0 7 6 2 5 15 3 0 0 0 0 0 0 0 0 0 0 0 0 0 0 0 0 0 0 0 0 0 0 0 0 0 0 0 0 0 0 0 0 0 0
3 10 0 2 1 0 6 13 4 0 0 0 0 0 0 0 0 0 0 0 0 0 0 0 0 0 0 0 0 0 0 0 0 0 0 0 0 0 0 0 0 0 0 0
0 9 4 0 0 16 21 17 28 26 0 0 0 0 0 0 0 0 0 0 0 0 0 0 0 0 0 0 0 0 0 0 0 0 0 0 0 0 0 0 0 0 0 0
10 5 5 0 0 19 16 21 23 28 7 0 13 0 0 0 0 0 0 0 0 0 0 0 0 0 0 0 0 0 0 0 0 0 0 0 0 0 0 0 0 0 0 0
29 7 0 0 0 0 0 0 2 14 10 0 0 0 0 0 0 0 0 0 0 0 0 0 0 0 0 0 0 0 0 0 0 0 0 0 0 0 0 0 0 0 0 0
7 0 2 0 0 3 1 8 3 11 0 5 0 0 0 0 0 0 0 0 0 0 0 0 0 0 0 0 0 0 0 0 0 0 0 0 0 0 0 0 0 0 0 0
8 0 7 0 0 5 0 0 0 17 6 14 0 0 0 0 0 0 0 0 0 0 0 0 0 0 0 0 0 0 0 0 0 0 0 0 0 0 0 0 0 0 0 0
12 4 3 0 0 2 0 0 0 0 0 6 1 0 0 0 0 0 0 0 0 0 0 0 0 0 0 0 0 0 0 0 0 0 0 0 0 0 0 0 0 0 0 0
0 0 8 1 2 0 0 0 0 0 0 0 0 0 0 0 0 0 0 0 0 0 0 0 0 0 0 0 0 0 0 0 0 0 0 0 0 0 0 0 0 0 0 0
3 0 0 2 0 0 0 0 0 0 0 0 0 0 0 0 0 0 0 0 0 0 0 0 0 0 0 0 0 0 0 0 0 0 0 0 0 0 0 0 0 0 1 0
0 0 11 0 6 0 0 0 0 0 0 0 0 0 0 0 0 0 0 0 0 0 0 0 0 0 0 0 0 0 0 0 0 0 0 0 0 0 0 0 0 0 0 0
0 0 0 0 9 0 0 0 0 2 0 0 0 0 0 0 0 0 0 0 0 0 0 0 0 0 0 0 0 0 0 0 0 0 0 0 0 0 0 0 0 0 0 0
0 0 0 1 2 0 0 0 0 0 0 0 0 0 0 0 0 0 0 0 0 0 0 0 0 0 0 0 0 0 0 0 0 0 0 0 0 0 0 0 0 0 0 0
0 0 0 0 0 0 0 0 0 0 0 0 0 0 0 0 0 0 0 0 0 0 0 0 0 0 0 0 0 0 0 0 0 0 0 0 0 0 0 0 0 0 0 0
0 0 11 0 0 0 0 0 0 0 0 0 0 0 0 0 0 0 0 0 0 0 0 0 0 0 0 0 0 0 0 0 0 0 0 0 0 0 0 0 0 0 0 0
0 0 0 0 0 0 0 0 0 0 0 0 0 0 0 0 0 0 0 0 0 0 0 0 0 0 0 0 0 0 0 0 0 0 0 0 0 0 0 0 0 0 0 0
0 0 0 0 0 0 0 1 0 0 0 0 0 0 0 0 0 0 0 0 0 0 0 0 0 0 0 0 0 0 0 0 0 0 0 0 0 0 0 0 0 0 0 0
CIN
-1 -1 -0 -0 -0 -0 -0 -0 -0 -0 -0 -0 -0 -0 -0 -0 -0 -0 -0 -0 -0 -0 -0 -0 -0 -0 -0 -0 -0 -0 -0 -0 -0 -0 -0 -0 -286 -0 -306 -250 -190 -172 -150 -138
-0 -0 -0 -1 -0 -0 -2 -0 -0 -0 -13 -0 -0 -0 -0 -0 -0 -0 -0 -0 -0 -0 -0 -0 -0 -0 -0 -0 -0 -0 -0 -0 -0 -0 -264 -211 -203 -220 -213 -245 -243 -203 -153 -118
-0 -0 -0 -2 -0 -0 -0 -2 -0 -0 -0 -0 -0 -0 -0 -0 -0 -0 -0 -0 -0 -0 -0 -0 -0 -0 -0 -0 -0 -0 -0 -0 -0 -0 -212 -172 -163 -155 -130 -133 -135 -155 -154 -130
-1 -0 -0 -1 -1 -1 -0 -0 -6 -2 -2 -0 -0 -0 -0 -0 -0 -0 -0 -0 -0 -0 -0 -0 -0 -0 -0 -0 -0 -0 -0 -0 -0 -0 -0 -34 -169 -126 -184 -116 -105 -73 -54 -65
-0 -0 -0 -0 -1 -6 -1 -5 -4 -4 -0 -0 -0 -0 -0 -0 -0 -0 -0 -0 -0 -0 -0 -0 -0 -0 -0 -0 -0 -0 -0 -0 -0 -0 -0 -0 -0 -0 -0 -0 -0 -0 -0 -0
-0 -0 -0 -0 -13 -8 -17 -5 -11 -14 -0 -0 -0 -0 -0 -0 -0 -0 -0 -0 -0 -0 -0 -0 -0 -0 -0 -0 -0 -0 -0 -0 -0 -0 -0 -0 -0 -0 -0 -0 -0 -0 -0 -0
-1 -0 -0 -7 -0 -2 -2 -0 -1 -0 -0 -0 -0 -0 -0 -0 -0 -0 -0 -0 -0 -0 -0 -0 -0 -0 -0 -0 -0 -0 -0 -0 -0 -0 -0 -0 -0 -0 -0 -0 -0 -0 -0 -0
-0 -0 -0 -0 -0 -0 -0 -0 -0 -0 -0 -0 -0 -0 -0 -0 -0 -0 -0 -0 -0 -0 -0 -0 -0 -0 -0 -0 -0 -0 -0 -0 -0 -0 -0 -0 -0 -0 -0 -0 -0 -0 -0 -0
-0 -0 -0 -0 -0 -0 -0 -0 -0 -1 -0 -0 -0 -0 -0 -0 -0 -0 -0 -0 -0 -0 -0 -0 -0 -0 -0 -0 -0 -0 -0 -0 -0 -0 -0 -0 -0 -0 -0 -0 -0 -0 -0 -0
-0 -0 -0 -0 -6 -2 -5 -9 -4 -12 -0 -0 -0 -0 -0 -0 -0 -0 -0 -0 -0 -0 -0 -0 -0 -0 -0 -0 -0 -0 -0 -0 -0 -0 -0 -0 -0 -0 -0 -0 -0 -0 -0 -0
-4 -3 -0 -8 -1 -0 -4 -1 -8 -0 -0 -0 -0 -0 -0 -0 -0 -0 -0 -0 -0 -0 -0 -0 -0 -0 -0 -0 -0 -0 -0 -0 -0 -0 -0 -0 -0 -0 -0 -0 -0 -0 -0 -0
-0 -1 -2 -0 -0 -12 -16 -14 -24 -4 -0 -0 -0 -0 -0 -0 -0 -0 -0 -0 -0 -0 -0 -0 -0 -0 -0 -0 -0 -0 -0 -0 -0 -0 -0 -0 -0 -0 -0 -0 -0 -0 -0 -0
-34 -2 -1 -3 -1 -16 -2 -8 -7 -10 -24 -0 -2 -0 -0 -0 -0 -0 -0 -0 -0 -0 -0 -0 -0 -0 -0 -0 -0 -0 -0 -0 -0 -0 -0 -0 -0 -0 -0 -0 -0 -0 -0 -0
-19 -9 -0 -0 -0 -6 -2 -0 -14 -14 -8 -0 -0 -0 -0 -0 -0 -0 -0 -0 -0 -0 -0 -0 -0 -0 -0 -0 -0 -0 -0 -0 -0 -0 -0 -0 -0 -0 -0 -0 -0 -0 -0 -0
-13 -0 -5 -0 -0 -13 -3 -11 -24 -21 -0 -7 -0 -0 -0 -0 -0 -0 -0 -0 -0 -0 -0 -0 -0 -0 -0 -0 -0 -0 -0 -0 -0 -0 -0 -0 -0 -0 -0 -0 -0 -0 -0 -0
-20 -2 -4 -0 -0 -17 -2 -0 -4 -10 -11 -19 -0 -0 -0 -0 -0 -0 -0 -0 -0 -0 -0 -0 -0 -0 -0 -0 -0 -0 -0 -0 -0 -0 -0 -0 -0 -0 -0 -0 -0 -0 -0 -0
-18 -1 -12 -0 -0 -2 -0 -0 -0 -0 -0 -26 -7 -0 -0 -0 -0 -0 -0 -0 -0 -0 -0 -0 -0 -0 -0 -0 -0 -0 -0 -0 -0 -0 -0 -0 -0 -0 -0 -0 -0 -0 -0 -0
-0 -0 -0 -2 -3 -1 -0 -0 -0 -0 -0 -0 -0 -0 -0 -0 -0 -0 -0 -0 -0 -0 -0 -0 -0 -0 -0 -0 -0 -0 -0 -0 -0 -0 -0 -0 -0 -0 -0 -0 -0 -0 -0 -0
-54 -0 -1 -0 -2 -0 -0 -0 -0 -0 -0 -0 -0 -0 -0 -0 -0 -0 -0 -0 -0 -0 -0 -0 -0 -0 -0 -0 -0 -0 -0 -0 -0 -0 -0 -0 -0 -0 -0 -0 -0 -0 -0 -0
-0 -0 -2 -2 -4 -0 -0 -0 -0 -0 -0 -0 -0 -0 -0 -0 -0 -0 -0 -0 -0 -0 -0 -0 -0 -0 -0 -0 -0 -0 -0 -0 -0 -0 -0 -0 -0 -0 -0 -0 -0 -0 -0 -0
-0 -0 -0 -0 -2 -4 -0 -0 -0 -6 -0 -0 -0 -0 -0 -0 -0 -0 -0 -0 -0 -0 -0 -0 -0 -0 -0 -0 -0 -0 -0 -0 -0 -0 -0 -0 -0 -0 -0 -0 -0 -0 -0 -0
-0 -0 -0 -0 -1 -2 -0 -0 -0 -0 -0 -0 -0 -0 -0 -0 -0 -0 -0 -0 -0 -0 -0 -0 -0 -0 -0 -0 -0 -0 -0 -0 -0 -0 -0 -0 -0 -0 -0 -0 -0 -0 -0 -0
-0 -2 -0 -0 -0 -0 -0 -0 -0 -0 -0 -0 -0 -0 -0 -0 -0 -0 -0 -0 -0 -0 -0 -0 -0 -0 -0 -0 -0 -0 -0 -0 -0 -0 -0 -0 -0 -0 -0 -0 -0 -0 -0 -0
-0 -0 -58 -1 -0 -0 -0 -0 -0 -0 -0 -0 -0 -0 -0 -0 -0 -0 -0 -0 -0 -0 -0 -0 -0 -0 -0 -0 -0 -0 -0 -0 -0 -0 -0 -0 -0 -0 -0 -0 -0 -0 -0 -0
-0 -0 -0 -0 -0 -0 -0 -0 -0 -0 -0 -0 -0 -0 -0 -0 -0 -0 -0 -0 -0 -0 -0 -0 -0 -0 -0 -0 -0 -0 -0 -0 -0 -0 -0 -0 -0 -0 -0 -0 -0 -0 -0 -1
-0 -0 -0 -0 -0 -0 -0 -0 -0 -0 -0 -0 -0 -0 -0 -0 -0 -0 -0 -0 -0 -0 -0 -0 -0 -0 -0 -0 -0 -0 -0 -0 -0 -0 -0 -0 -0 -0 -0 -0 -0 -0 -0 -0
Wind_Speed
20 25 28 25 26 27 26 29 31 29 29 36 39 43 41 40 38 37 36 35 33 33 32 32 31 31 32 30 30 28 26 25 21 20 20 21 22 22 22 22 21 22 23 23
25 34 26 23 26 29 33 36 37 35 31 36 41 48 45 40 36 31 31 33 33 34 35 32 32 31 31 30 30 28 26 24 22 21 22 22 23 24 24 24 24 25 24 23
31 28 24 26 27 29 31 33 35 37 35 37 42 47 33 25 21 26 25 29 33 34 34 31 27 27 27 27 27 26 25 24 24 23 22 23 24 25 28 28 29 28 27 26
32 31 25 27 30 26 35 28 30 33 36 41 31 49 37 34 27 28 32 30 28 29 26 24 24 25 25 25 24 24 23 23 23 23 21 22 24 26 28 29 29 30 29 29
30 27 30 32 30 24 32 25 28 30 34 39 36 39 39 23 35 28 27 25 26 25 24 23 22 22 22 23 23 22 22 22 23 23 22 22 23 24 26 27 28 29 31 31
30 23 23 27 26 23 20 25 28 29 32 44 36 34 41 31 23 26 27 26 25 24 22 21 19 19 20 22 22 22 22 22 23 23 23 23 23 25 26 28 29 29 29 29
32 33 27 24 25 23 24 26 35 38 37 44 32 34 39 27 30 31 29 27 24 21 20 19 18 18 19 20 21 21 22 23 23 24 24 25 24 25 26 27 29 30 31 32
34 38 27 24 27 27 24 25 32 41 40 40 29 38 34 22 25 32 30 23 20 18 17 17 17 17 18 19 20 21 22 23 24 24 25 25 25 26 26 28 29 30 32 33
30 34 25 22 22 20 26 31 26 34 33 39 36 37 38 36 31 25 21 17 17 16 15 15 16 16 17 18 20 21 22 23 25 25 26 26 27 28 29 29 31 32 33 34
27 36 27 25 23 23 25 19 29 28 38 43 40 43 40 32 32 22 19 17 16 15 15 15 16 16 17 18 20 22 23 24 25 26 26 27 28 30 31 31 33 34 36 37
30 32 32 26 29 28 28 30 28 30 32 40 47 42 29 28 24 22 19 15 15 15 15 14 15 16 17 18 20 22 24 25 26 27 28 28 29 31 32 33 35 36 37 39
27 30 40 38 29 27 28 30 28 36 36 35 42 50 25 24 27 25 21 17 15 13 13 14 14 15 17 18 20 23 24 26 28 28 29 30 32 33 34 35 36 38 39 39
23 32 43 43 35 31 34 31 30 31 32 43 41 46 25 27 25 22 19 14 12 12 12 13 14 16 18 19 21 23 24 28 30 30 31 33 34 35 36 37 37 38 39 40
23 32 38 46 37 29 34 33 31 33 41 43 43 45 37 31 29 24 18 13 12 12 12 13 15 18 20 22 24 24 27 30 31 32 34 35 36 37 37 37 37 39 39 40
31 42 38 44 42 39 39 38 34 37 40 41 45 42 41 35 30 24 18 13 13 14 14 15 16 18 22 24 25 26 28 31 32 33 34 35 36 36 36 37 38 39 39 40
33 48 43 53 46 43 48 46 44 40 41 42 44 47 34 34 25 22 20 18 18 15 13 14 17 20 23 24 27 28 28 30 31 33 34 35 35 36 37 37 38 39 41 42
38 38 36 51 41 40 49 48 43 42 40 37 43 39 31 31 29 26 22 20 18 15 15 17 21 22 22 25 27 27 28 29 30 32 33 34 36 36 37 38 38 40 42 43
43 45 43 51 44 54 42 34 33 36 37 34 38 38 33 31 27 23 20 17 15 15 18 21 21 21 23 25 26 25 26 28 30 32 33 34 35 37 38 39 40 41 42 44
36 41 47 52 53 52 54 40 36 34 43 31 31 28 30 24 22 25 16 15 13 14 15 18 19 20 22 22 24 24 25 27 29 32 33 35 36 37 39 40 42 43 45 46
36 36 41 45 51 56 51 36 31 30 47 34 27 28 22 18 26 24 15 14 13 12 13 15 17 19 21 21 24 23 25 28 30 32 33 34 35 37 39 41 43 44 45 47
34 36 45 48 50 47 45 41 29 37 39 29 29 27 23 24 26 14 10 10 13 13 13 14 16 18 20 21 21 24 26 28 30 31 33 34 36 37 39 41 42 44 45 46
36 36 40 41 46 52 30 30 34 35 28 26 28 24 18 17 14 9 8 8 9 10 10 12 14 15 18 20 22 24 26 28 29 31 32 34 37 38 40 42 43 44 46 48
38 32 34 31 34 27 21 24 33 32 28 25 24 19 7 7 10 7 7 8 7 8 10 11 12 15 19 21 22 23 26 28 30 32 34 35 37 39 40 42 44 45 47 49
31 30 33 31 31 40 25 26 29 34 30 21 16 13 10 6 4 3 4 4 6 7 9 10 12 15 18 21 22 24 27 29 31 32 34 36 38 40 41 42 43 45 47 49
27 22 32 42 41 39 25 23 19 24 20 11 7 7 2 4 3 2 3 4 5 7 9 11 13 16 19 21 23 26 27 29 31 33 35 37 38 40 42 42 42 43 43 44
25 38 41 39 26 31 30 7 12 12 9 7 4 4 4 2 2 2 3 4 6 8 10 12 15 17 20 22 24 26 28 30 32 34 36 38 39 40 40 41 41 39 40 40
Wind_Direction
274 273 271 275 274 278 289 287 288 293 296 296 293 293 297 300 302 303 305 306 307 308 311 312 316 319 320 321 318 316 314 312 309 307 308 303 299 300 301 302 303 304 306 306
273 271 277 282 279 278 280 284 286 293 298 297 296 293 297 299 301 304 307 308 309 310 310 314 317 320 322 322 321 320 318 316 312 306 305 306 306 305 304 305 304 305 306 307
267 280 276 275 278 277 281 283 288 290 298 298 298 295 302 312 319 317 314 312 312 313 314 318 323 326 328 329 330 331 328 326 322 314 308 307 308 308 307 308 307 307 307 307
273 272 281 275 275 280 280 287 289 292 295 292 306 292 297 303 309 315 314 317 320 322 327 330 331 332 332 333 336 337 338 337 333 329 322 317 313 311 313 312 312 311 310 308
274 278 267 271 276 279 284 292 292 294 294 294 294 295 300 306 306 312 323 326 327 330 330 331 337 339 341 342 344 344 343 342 341 341 336 329 325 322 320 320 319 319 317 315
273 286 282 278 278 279 287 293 296 295 294 286 287 290 294 299 306 319 321 323 326 329 334 337 342 348 348 349 350 351 350 347 344 343 340 337 333 329 327 324 324 324 324 324
273 273 279 281 280 281 278 285 286 286 284 284 296 287 287 300 303 312 316 318 323 327 333 340 345 347 351 353 352 351 350 348 345 345 344 342 340 337 334 331 328 326 325 323
268 273 269 271 271 278 272 272 280 285 285 289 293 288 296 303 307 313 314 316 321 326 333 340 348 350 351 350 349 348 346 344 343 343 343 343 342 340 339 337 334 330 327 324
272 274 284 281 279 268 277 270 280 287 291 289 288 291 295 299 305 315 322 326 329 334 335 336 341 345 346 346 346 342 340 340 339 339 339 339 338 336 332 332 332 330 328 326
278 277 283 280 279 274 276 279 279 281 282 283 288 291 290 300 306 312 315 315 320 326 331 334 337 341 339 341 342 337 337 341 338 338 339 337 335 335 334 332 330 329 326 324
269 276 280 281 271 269 273 273 280 283 281 284 288 291 302 300 304 308 308 309 310 314 320 327 333 342 341 336 335 332 334 338 338 337 335 337 338 337 334 331 327 326 326 325
260 276 272 273 282 275 271 272 268 275 282 282 283 285 303 304 309 307 303 302 306 311 317 321 326 333 337 338 338 330 329 331 332 333 334 333 334 334 333 330 329 327 326 326
268 274 272 275 280 278 273 273 272 273 283 276 281 286 302 302 307 307 303 298 301 306 309 315 321 324 329 331 334 332 327 327 328 331 332 331 331 331 330 329 329 328 327 327
276 273 270 271 280 284 276 274 268 266 272 279 275 285 288 294 297 300 297 292 292 296 299 307 314 317 320 322 326 328 321 324 329 329 328 328 329 329 329 330 332 330 330 330
272 272 274 274 277 281 282 279 272 268 269 273 281 281 286 288 286 285 284 283 283 290 295 301 306 313 315 318 321 328 325 326 328 326 330 328 328 330 332 333 331 332 332 331
276 272 275 275 277 279 278 276 275 272 273 275 278 280 289 292 289 282 275 269 273 277 290 300 304 310 313 318 316 323 326 326 331 325 326 332 332 331 330 332 332 331 331 332
273 277 276 274 281 280 275 274 274 276 275 277 276 276 287 284 278 276 270 262 269 272 282 297 300 306 314 317 319 324 328 329 332 330 331 332 332 334 335 335 336 335 335 334
272 273 276 277 281 275 280 289 283 279 277 276 275 275 279 280 282 282 274 259 263 271 280 292 303 309 314 317 321 327 330 331 332 332 333 335 335 334 335 335 335 334 334 334
267 271 272 272 273 278 279 283 285 284 285 277 279 271 281 282 279 279 277 269 268 277 285 295 304 310 315 323 318 329 334 334 334 333 333 333 333 333 333 333 332 333 332 331
265 267 267 270 273 274 280 291 298 288 280 283 279 273 270 270 270 272 260 266 270 282 289 299 305 314 321 319 322 331 334 334 334 334 333 334 335 335 334 334 333 334 333 331
268 266 263 269 273 278 281 284 293 278 284 291 285 276 265 264 275 272 255 261 276 285 293 303 311 318 318 324 329 332 333 333 333 333 334 336 337 336 336 335 335 335 336 335
267 270 269 271 273 276 283 286 272 282 288 291 291 286 277 275 273 270 259 265 278 289 303 311 316 323 329 331 332 333 334 334 335 335 336 337 337 338 338 337 337 337 336 336
268 265 271 270 277 285 289 292 285 283 278 285 287 288 283 270 260 253 261 274 289 304 312 320 322 329 332 333 335 334 334 335 335 336 337 338 339 339 339 338 338 338 338 338
273 273 270 276 278 274 289 296 282 266 267 282 290 284 278 257 244 251 274 293 308 319 325 332 331 332 333 335 337 337 336 336 337 337 338 339 339 339 340 340 340 339 339 338
278 274 263 242 250 279 296 289 265 269 275 291 300 279 260 239 249 275 302 312 325 333 334 333 334 335 335 336 337 338 338 338 337 338 339 339 340 340 340 341 341 341 342 343
271 251 233 234 293 294 290 290 248 261 271 275 259 282 298 286 295 328 329 339 339 335 335 336 337 337 337 338 338 339 339 340 339 338 339 339 339 340 341 341 343 347 347 347